SCP
0 0 0 0 0 0 0 0 0 0 -0 -0 0 0 0 0 0 0 0 0 0 0 0 0 0 0 0 0 0 0 0 0 0 0 0 0 0 0
0 0 0 0 0 0 0 0 0 0 0 0 0 0 0 0 0 0 0 0 0 0 0 0 0 0 0 0 0 0 0 0 0 0 0 0 0 0
0 0 0 0 0 0 0 0 0 0 0 0 0 0 0 0 0 0 0 0 0 0 0 0 0 0 0 0 0 0 0 0 0 0 0 0 0 0
0 0 0 0 0 0 0 0 0 0 0 0 0 0 0 0 0 0 0 0 0 0 0 0 0 0 0 0 0 0 0 0 0 0 0 0 0 0
-0 -0 0 0 0 0 0 0 0 0 0 0 0 0 0 0 0 0 0 0 0 0 0 0 0 0 0 0 0 0 0 0 0 0 0 0 0 0
0 0 0 0 0 0 0 0 0 0 0 0 0 0 0 0 0 0 0 0 0 0 0 0 0 0 0 0 0 0 0 0 0 0 0 0 0 0
0 0 0 0 0 0 0 0 0 0 0 0 0 0 0 0 0 0 0 0 0 0 0 0 0 0 0 0 0 0 0 0 0 0 0 0 0 0
0 0 0 0 0 0 0 0 0 0 0 0 0 0 0 0 0 0 0 0 0 0 0 0 0 0 0 0 0 0 0 0 0 0 0 0 0 0
0 0 0 0 0 0 0 0 0 0 0 0 0 0 0 0 0 0 0 0 0 0 0 0 0 0 0 0 0 0 0 0 0 0 0 0 0 0
0 0 0 0 0 0 0 0 0 0 0 0 0 0 0 0 0 0 0 0 0 0 0 0 0 0 0 0 0 0 0 0 0 0 0 0 0 0
0 0 0 0 0 0 0 0 0 0 0 0 0 0 0 0 0 0 0 0 0 0 0 0 0 0 0 0 0 0 0 0 0 0 0 0 0 0
0 0 0 0 0 0 0 0 0 0 0 0 0 0 0 0 0 0 0 0 0 0 0 0 0 0 0 0 0 0 0 0 0 0 0 0 0 0
0 0 0 0 0 0 0 0 0 0 0 0 0 0 0 0 0 0 0 0 0 0 0 0 0 0 0 0 0 0 0 0 0 0 0 0 0 0
0 0 0 0 0 0 0 0 0 0 0 0 0 0 0 0 0 0 0 0 0 0 0 0 0 0 0 0 0 0 0 0 0 0 0 0 0 0
0 0 0 0 0 0 0 0 0 0 0 0 0 0 0 0 0 0 0 0 0 0 0 0 0 0 0 0 0 0 0 0 0 0 0 0 0 0
0 0 0 0 0 0 0 0 0 0 0 0 0 0 0 0 0 0 0 0 0 0 0 0 0 0 0 0 0 0 0 0 0 0 0 0 0 0
0 0 0 0 0 0 0 0 0 0 0 0 0 0 0 0 0 0 0 0 0 0 0 0 0 0 0 0 0 0 0 0 0 0 0 0 0 0
0 0 0 0 0 0 0 0 0 0 0 0 0 0 0 0 0 -0 0 0 0 0 0 0 0 0 0 0 0 0 0 0 0 0 0 0 0 0
0 0 0 0 0 0 0 0 0 0 0 0 0 0 0 0 0 0 0 0 0 0 0 0 0 0 0 0 0 0 0 0 0 0 0 0 0 0
0 0 0 0 0 0 0 0 0 0 0 0 0 0 0 0 0 -0 0 0 0 0 0 0 0 0 0 0 0 0 0 0 0 0 0 0 0 0
0 0 0 0 0 0 0 0 0 0 0 0 0 0 0 0 0 0 0 0 0 0 0 0 0 0 0 0 0 0 0 0 0 0 0 0 0 0
0 0 0 0 0 0 0 0 0 0 0 0 0 0 -0 0 0 0 0 0 0 0 0 0 0 0 0 0 0 0 0 0 0 0 0 0 0 0
0 0 0 0 0 0 0 0 0 0 0 0 0 0 0 0 0 0 0 0 0 0 0 0 0 0 0 0 0 0 0 0 0 0 0 0 0 0
Wind_Speed_500mb
43 44 44 43 49 54 60 66 68 72 84 75 80 81 78 77 77 75 72 73 76 78 79 80 74 69 65 62 61 59 58 56 52 48 46 45 43 42
51 53 51 49 49 45 47 56 63 73 94 88 90 86 82 82 79 81 82 76 75 81 84 83 81 76 71 68 67 64 64 62 58 55 51 50 47 45
61 63 63 58 57 56 52 51 56 64 83 98 97 95 94 89 89 90 83 81 77 77 82 85 86 84 79 77 74 71 69 69 64 60 56 53 50 47
77 75 74 70 70 65 62 61 63 60 68 82 87 90 92 89 88 89 95 96 92 86 77 78 85 86 86 84 82 80 76 73 69 67 63 56 53 50
89 89 90 84 81 77 73 72 71 71 72 76 85 78 80 82 84 84 89 95 98 94 89 87 87 91 91 90 88 87 83 78 75 73 68 62 58 54
97 98 98 97 94 90 84 81 80 80 81 82 86 86 79 76 78 81 85 88 95 96 95 94 92 95 95 92 90 94 90 84 82 79 73 67 63 59
101 101 102 101 99 95 90 92 87 86 87 89 93 91 91 83 79 78 81 84 90 90 94 98 98 101 103 101 99 97 95 91 91 84 79 75 70 66
108 110 107 107 105 102 89 76 69 73 85 86 95 98 97 86 80 76 75 76 87 84 85 99 98 106 106 108 107 104 97 97 98 92 88 83 79 72
99 98 96 94 97 95 96 82 84 89 84 85 91 93 92 94 80 77 79 80 86 83 70 81 78 102 108 110 110 108 102 98 100 100 96 92 87 77
84 80 75 77 78 76 80 88 92 98 106 96 92 112 107 100 89 89 84 85 84 83 80 88 81 97 89 94 105 110 104 102 100 104 103 99 93 83
66 60 60 65 61 56 62 72 81 91 85 85 91 95 94 92 83 78 87 87 91 92 91 90 88 81 86 89 95 98 95 101 104 105 107 104 97 90
71 68 62 57 57 55 61 70 84 87 76 71 79 87 94 100 94 91 91 84 84 77 80 84 87 81 80 94 91 92 90 93 95 102 107 107 102 98
78 73 74 64 60 59 59 68 75 73 77 83 97 86 89 97 93 97 108 100 88 89 74 62 75 77 88 73 50 58 70 83 92 91 95 104 106 107
76 78 82 71 65 66 69 78 76 75 82 83 82 92 98 82 91 93 95 100 106 105 90 82 86 77 87 83 81 77 77 58 77 88 92 96 98 105
79 78 76 77 74 75 76 73 72 77 82 91 94 99 104 107 96 88 93 92 92 93 94 92 90 87 85 93 80 78 77 77 76 76 86 96 106 104
85 87 88 82 79 80 84 79 81 85 88 90 92 96 90 87 107 88 90 88 85 85 90 85 91 95 99 102 94 84 85 83 73 87 87 92 98 103
79 82 80 72 69 64 70 77 81 85 90 91 86 84 88 86 88 108 91 88 82 78 74 72 81 88 91 97 87 95 96 90 85 79 84 91 99 101
63 64 64 62 66 71 78 80 73 75 84 87 84 82 82 88 93 100 78 86 82 79 76 74 71 72 82 90 98 90 94 96 91 86 84 90 97 101
49 51 53 56 60 64 65 61 63 66 73 78 77 77 76 73 60 74 82 61 62 67 74 80 80 76 77 76 80 91 92 88 86 86 88 92 97 106
48 51 53 55 58 60 62 64 66 63 66 68 68 61 63 70 55 47 47 56 63 67 68 80 79 82 84 85 77 82 87 92 91 86 87 85 90 91
57 55 54 54 55 57 57 57 59 60 68 67 54 54 63 64 53 47 44 52 71 69 73 85 79 67 74 70 60 68 67 76 83 80 82 86 89 89
59 59 57 56 55 55 56 57 58 54 53 51 52 43 52 60 63 55 49 54 60 68 71 71 71 69 71 71 68 67 58 58 63 63 65 71 82 72
56 57 59 59 59 57 56 55 53 51 45 37 39 46 45 47 56 56 53 43 43 54 63 69 66 62 60 63 61 59 56 54 60 56 52 63 55 64
Wind_Direction_500mb
325 320 311 300 287 279 274 272 276 285 286 282 281 278 275 271 265 266 269 267 263 259 257 258 257 256 256 254 249 249 248 247 245 244 245 248 250 251
312 311 311 312 309 301 289 278 271 272 278 279 279 279 275 270 266 263 263 264 265 262 260 259 258 257 256 254 250 248 247 246 245 245 244 247 248 250
306 304 301 302 301 301 301 297 286 275 275 280 280 281 279 273 267 263 261 261 261 260 261 260 258 256 254 254 252 248 246 247 245 245 246 247 250 250
301 298 296 297 294 294 294 292 291 290 285 284 283 282 281 280 275 267 261 259 259 258 258 261 261 259 254 251 250 249 246 245 245 245 246 248 249 250
295 293 292 291 289 289 289 288 286 286 287 289 289 286 284 283 277 271 265 261 258 258 258 256 258 259 257 253 249 248 246 244 244 244 246 247 248 250
293 291 289 289 288 287 285 282 283 284 284 283 285 288 287 283 281 276 270 264 260 258 256 255 254 256 257 255 252 248 247 243 242 243 244 246 248 249
294 291 290 289 287 287 287 285 283 280 279 280 280 282 283 282 280 283 279 276 270 262 258 254 253 253 251 250 250 248 245 243 242 242 242 244 246 246
292 292 289 288 288 288 286 280 277 277 276 276 276 275 276 278 282 281 281 276 273 271 263 256 251 250 251 252 251 251 246 243 242 242 241 240 242 244
286 285 285 285 286 285 284 283 278 272 267 266 267 267 272 273 275 276 275 273 272 272 265 265 258 252 250 251 253 252 251 247 245 242 242 241 241 242
289 289 287 285 281 283 284 285 283 279 273 270 265 267 265 265 266 268 272 274 274 269 262 261 262 261 259 257 255 253 251 249 248 244 243 242 242 241
297 295 294 294 294 291 288 286 286 284 284 274 268 266 266 266 260 260 260 257 257 258 260 257 256 258 262 259 255 256 256 252 248 246 244 243 242 241
303 304 302 295 295 293 287 284 281 282 284 286 287 282 270 262 256 252 248 246 247 250 252 252 254 251 255 260 259 256 252 251 250 249 245 243 242 239
307 303 299 300 296 293 289 287 287 295 292 284 277 277 279 271 266 258 251 242 241 242 243 245 249 249 247 250 252 256 251 247 249 244 242 242 242 240
299 302 307 303 297 294 290 290 288 287 285 284 283 277 272 272 265 258 255 251 247 246 245 241 242 244 249 249 248 247 249 252 244 239 234 234 234 239
303 302 300 298 296 292 288 292 288 287 285 282 279 274 275 269 264 262 256 257 255 250 246 237 241 244 241 248 248 249 247 244 241 244 231 226 223 224
311 310 310 306 299 293 291 293 290 290 288 281 276 274 274 274 262 260 244 244 244 242 243 240 239 240 242 241 244 244 248 243 245 239 238 231 225 224
308 302 300 299 300 302 299 297 294 292 289 293 280 274 274 272 267 248 247 237 236 236 236 240 237 239 245 246 235 241 247 246 246 243 233 229 226 224
310 305 309 309 309 309 307 301 292 285 284 283 275 275 275 280 272 243 232 227 229 232 236 238 239 236 236 235 239 237 240 244 245 239 234 224 221 225
320 319 321 323 323 326 324 317 313 297 291 286 279 277 275 285 270 261 240 230 217 228 235 241 240 231 224 227 233 233 236 237 237 237 236 230 222 225
340 336 332 330 330 332 333 332 326 318 308 295 283 279 276 280 290 262 261 250 244 240 229 234 236 234 229 236 234 243 239 237 238 237 235 231 227 230
350 346 342 338 336 336 336 333 328 325 322 308 298 284 276 281 291 292 280 275 250 228 229 237 244 254 248 237 227 234 236 233 238 237 230 227 220 219
358 356 352 347 343 343 341 341 339 335 338 328 321 301 278 270 273 276 282 265 240 226 235 247 247 239 233 229 228 233 231 224 225 227 231 231 219 207
359 1 1 359 356 351 346 343 343 342 345 345 336 319 301 276 268 269 276 271 260 250 230 234 237 237 235 229 224 226 222 214 211 206 198 210 222 221
Wind_Speed_850mb
43 44 44 43 49 54 60 66 68 72 84 75 80 81 78 77 77 75 72 73 76 78 79 80 74 69 65 62 61 59 58 56 52 48 46 45 43 42
51 53 51 49 49 45 47 56 63 73 94 88 90 86 82 82 79 81 82 76 75 81 84 83 81 76 71 68 67 64 64 62 58 55 51 50 47 45
61 63 63 58 57 56 52 51 56 64 83 98 97 95 94 89 89 90 83 81 77 77 82 85 86 84 79 77 74 71 69 69 64 60 56 53 50 47
77 75 74 70 70 65 62 61 63 60 68 82 87 90 92 89 88 89 95 96 92 86 77 78 85 86 86 84 82 80 76 73 69 67 63 56 53 50
89 89 90 84 81 77 73 72 71 71 72 76 85 78 80 82 84 84 89 95 98 94 89 87 87 91 91 90 88 87 83 78 75 73 68 62 58 54
97 98 98 97 94 90 84 81 80 80 81 82 86 86 79 76 78 81 85 88 95 96 95 94 92 95 95 92 90 94 90 84 82 79 73 67 63 59
101 101 102 101 99 95 90 92 87 86 87 89 93 91 91 83 79 78 81 84 90 90 94 98 98 101 103 101 99 97 95 91 91 84 79 75 70 66
108 110 107 107 105 102 89 76 69 73 85 86 95 98 97 86 80 76 75 76 87 84 85 99 98 106 106 108 107 104 97 97 98 92 88 83 79 72
99 98 96 94 97 95 96 82 84 89 84 85 91 93 92 94 80 77 79 80 86 83 70 81 78 102 108 110 110 108 102 98 100 100 96 92 87 77
84 80 75 77 78 76 80 88 92 98 106 96 92 112 107 100 89 89 84 85 84 83 80 88 81 97 89 94 105 110 104 102 100 104 103 99 93 83
66 60 60 65 61 56 62 72 81 91 85 85 91 95 94 92 83 78 87 87 91 92 91 90 88 81 86 89 95 98 95 101 104 105 107 104 97 90
71 68 62 57 57 55 61 70 84 87 76 71 79 87 94 100 94 91 91 84 84 77 80 84 87 81 80 94 91 92 90 93 95 102 107 107 102 98
78 73 74 64 60 59 59 68 75 73 77 83 97 86 89 97 93 97 108 100 88 89 74 62 75 77 88 73 50 58 70 83 92 91 95 104 106 107
76 78 82 71 65 66 69 78 76 75 82 83 82 92 98 82 91 93 95 100 106 105 90 82 86 77 87 83 81 77 77 58 77 88 92 96 98 105
79 78 76 77 74 75 76 73 72 77 82 91 94 99 104 107 96 88 93 92 92 93 94 92 90 87 85 93 80 78 77 77 76 76 86 96 106 104
85 87 88 82 79 80 84 79 81 85 88 90 92 96 90 87 107 88 90 88 85 85 90 85 91 95 99 102 94 84 85 83 73 87 87 92 98 103
79 82 80 72 69 64 70 77 81 85 90 91 86 84 88 86 88 108 91 88 82 78 74 72 81 88 91 97 87 95 96 90 85 79 84 91 99 101
63 64 64 62 66 71 78 80 73 75 84 87 84 82 82 88 93 100 78 86 82 79 76 74 71 72 82 90 98 90 94 96 91 86 84 90 97 101
49 51 53 56 60 64 65 61 63 66 73 78 77 77 76 73 60 74 82 61 62 67 74 80 80 76 77 76 80 91 92 88 86 86 88 92 97 106
48 51 53 55 58 60 62 64 66 63 66 68 68 61 63 70 55 47 47 56 63 67 68 80 79 82 84 85 77 82 87 92 91 86 87 85 90 91
57 55 54 54 55 57 57 57 59 60 68 67 54 54 63 64 53 47 44 52 71 69 73 85 79 67 74 70 60 68 67 76 83 80 82 86 89 89
59 59 57 56 55 55 56 57 58 54 53 51 52 43 52 60 63 55 49 54 60 68 71 71 71 69 71 71 68 67 58 58 63 63 65 71 82 72
56 57 59 59 59 57 56 55 53 51 45 37 39 46 45 47 56 56 53 43 43 54 63 69 66 62 60 63 61 59 56 54 60 56 52 63 55 64
Wind_Direction_850mb
325 320 311 300 287 279 274 272 276 285 286 282 281 278 275 271 265 266 269 267 263 259 257 258 257 256 256 254 249 249 248 247 245 244 245 248 250 251
312 311 311 312 309 301 289 278 271 272 278 279 279 279 275 270 266 263 263 264 265 262 260 259 258 257 256 254 250 248 247 246 245 245 244 247 248 250
306 304 301 302 301 301 301 297 286 275 275 280 280 281 279 273 267 263 261 261 261 260 261 260 258 256 254 254 252 248 246 247 245 245 246 247 250 250
301 298 296 297 294 294 294 292 291 290 285 284 283 282 281 280 275 267 261 259 259 258 258 261 261 259 254 251 250 249 246 245 245 245 246 248 249 250
295 293 292 291 289 289 289 288 286 286 287 289 289 286 284 283 277 271 265 261 258 258 258 256 258 259 257 253 249 248 246 244 244 244 246 247 248 250
293 291 289 289 288 287 285 282 283 284 284 283 285 288 287 283 281 276 270 264 260 258 256 255 254 256 257 255 252 248 247 243 242 243 244 246 248 249
294 291 290 289 287 287 287 285 283 280 279 280 280 282 283 282 280 283 279 276 270 262 258 254 253 253 251 250 250 248 245 243 242 242 242 244 246 246
292 292 289 288 288 288 286 280 277 277 276 276 276 275 276 278 282 281 281 276 273 271 263 256 251 250 251 252 251 251 246 243 242 242 241 240 242 244
286 285 285 285 286 285 284 283 278 272 267 266 267 267 272 273 275 276 275 273 272 272 265 265 258 252 250 251 253 252 251 247 245 242 242 241 241 242
289 289 287 285 281 283 284 285 283 279 273 270 265 267 265 265 266 268 272 274 274 269 262 261 262 261 259 257 255 253 251 249 248 244 243 242 242 241
297 295 294 294 294 291 288 286 286 284 284 274 268 266 266 266 260 260 260 257 257 258 260 257 256 258 262 259 255 256 256 252 248 246 244 243 242 241
303 304 302 295 295 293 287 284 281 282 284 286 287 282 270 262 256 252 248 246 247 250 252 252 254 251 255 260 259 256 252 251 250 249 245 243 242 239
307 303 299 300 296 293 289 287 287 295 292 284 277 277 279 271 266 258 251 242 241 242 243 245 249 249 247 250 252 256 251 247 249 244 242 242 242 240
299 302 307 303 297 294 290 290 288 287 285 284 283 277 272 272 265 258 255 251 247 246 245 241 242 244 249 249 248 247 249 252 244 239 234 234 234 239
303 302 300 298 296 292 288 292 288 287 285 282 279 274 275 269 264 262 256 257 255 250 246 237 241 244 241 248 248 249 247 244 241 244 231 226 223 224
311 310 310 306 299 293 291 293 290 290 288 281 276 274 274 274 262 260 244 244 244 242 243 240 239 240 242 241 244 244 248 243 245 239 238 231 225 224
308 302 300 299 300 302 299 297 294 292 289 293 280 274 274 272 267 248 247 237 236 236 236 240 237 239 245 246 235 241 247 246 246 243 233 229 226 224
310 305 309 309 309 309 307 301 292 285 284 283 275 275 275 280 272 243 232 227 229 232 236 238 239 236 236 235 239 237 240 244 245 239 234 224 221 225
320 319 321 323 323 326 324 317 313 297 291 286 279 277 275 285 270 261 240 230 217 228 235 241 240 231 224 227 233 233 236 237 237 237 236 230 222 225
340 336 332 330 330 332 333 332 326 318 308 295 283 279 276 280 290 262 261 250 244 240 229 234 236 234 229 236 234 243 239 237 238 237 235 231 227 230
350 346 342 338 336 336 336 333 328 325 322 308 298 284 276 281 291 292 280 275 250 228 229 237 244 254 248 237 227 234 236 233 238 237 230 227 220 219
358 356 352 347 343 343 341 341 339 335 338 328 321 301 278 270 273 276 282 265 240 226 235 247 247 239 233 229 228 233 231 224 225 227 231 231 219 207
359 1 1 359 356 351 346 343 343 342 345 345 336 319 301 276 268 269 276 271 260 250 230 234 237 237 235 229 224 226 222 214 211 206 198 210 222 221